STARLINK-1555, 46032

Orbit data source: Space-Track

STARLINK-1555, 46032 is a payload satellite owned by SpaceX/Seattle (US) in LEO that was launched on Fri, 07 Aug 2020 UTC via an FALCON 9 launch vehicle from the Air Force Eastern Test Range (AFETR). Payload-class satellites include a variety of spacecraft equipped with specific instruments for various scientific and technological missions. These include communications satellites like Starlink; space stations such as the ISS; scientific satellites like the Hubble; Earth observation satellites from companies like Planet Labs, Umbra, and HawkEye 360; GPS; miniature CubeSats for education and research; and military/defense satellites.

Loading next visibility...
Identifier
46032, 2020-055F
Orbit
LEO
Country
Flag of USUS
Related business
Manufacturer
SpaceX/Seattle
Mission
Operational Commercial Communications
Bus & Motor
STARLINK, Unknown motor
Mass
260 kg wet, ~248 kg dry
Launch date (UTC)
2020-08-07 (6 years ago)
Launch vehicle
FALCON 9
Launch site
Air Force Eastern Test Range (AFETR)
Object type
Payload
Rocket body
Debris
Shape & HBR
Box + 1 Pan, 10.1 m
Radar Cross Section
13.562 m², Large (>1 m²)

Expand to show TLE details & history
Last TLE update: 10 hours ago

TLE from 10 hours ago
0 STARLINK-1555
1 46032U 20055F   26263.37181465  .00000285  00000-0  20944-4 0  9999
2 46032  53.1595 301.4122 0001314  98.6970 261.4180 15.31698898338718
Epoch: 2026-09-20T08:55Z
TLE epoch observation values (Epoch: 2026-09-20T08:55:24.785Z)
Latitude
-0.00006°
Longitude
168.29194°
Altitude
471.778 km
Speed
7.631 km/s
True Right ascension
20h 05m 38s
True Declination
0° 00' 00"
Sunlit
Object was in full shadow at epoch
Visualization orbit readout
Latitude
Unknown
Longitude
Unknown
Altitude
Unknown
Speed
Unknown
Apparent Right ascension
Unknown
Apparent Declination
Unknown
Sunlit
N/A
Visualization observer readout
Local Sidereal Time
12:12:39
Azimuth
Unknown
Elevation
Unknown
Doppler factor
Unknown
Orbital elements
Apogee altitude
471.9 km
Perigee altitude
470.1 km
Semi-major axis
6,849.137 km
Eccentricity
0.00013
Inclination
53.1595°
RAAN
301.4122°
Arg. of periapsis
98.697°
True anomaly
261.40311°
Mean anomaly
261.418°
Eccentric anomaly
261.41056°
Mean motion
3.82904 °/min
Orbital period
94.02 mins
BSTAR
0.000020944
Loading maneuver chart data...
Computing Atmospheric mass density...

Documentation

Showing up to 5 results
|